Time[GMT],significant_wave_height[m](0m),dominant_wave_period[s](0m)
2010-08-01 17:00, 0.69,8.0
2010-08-01 18:00, 0.84,8.0
2010-08-01 19:00, 0.78,8.0
2010-08-01 20:00, 0.85,10.7
2010-08-01 21:00, 0.85,8.0
2010-08-01 22:00, 0.92,8.0
2010-08-01 23:00, 0.93,8.0
2010-08-02 00:00, 0.97,8.0
2010-08-02 01:00, 0.90,8.0
2010-08-02 02:00, 0.84,8.0
2010-08-02 03:00, 0.98,8.0
2010-08-02 04:00, 0.86,8.0
2010-08-02 05:00, 1.10,8.0
2010-08-02 06:00, 0.97,8.0
2010-08-02 07:00, 1.19,8.0
2010-08-02 08:00, 0.98,8.0
2010-08-02 09:00, 1.07,10.7
2010-08-02 10:00, 0.93,8.0
2010-08-02 11:00, 1.12,8.0
2010-08-02 12:00,,
2010-08-02 13:00, 0.92,8.0
2010-08-02 14:00, 1.25,10.7
2010-08-02 15:00, 0.97,8.0
2010-08-02 16:00, 1.07,8.0
2010-08-02 17:00, 1.06,8.0
2010-08-02 18:00, 1.12,8.0
2010-08-02 19:00, 1.20,8.0
2010-08-02 20:00, 1.12,8.0
2010-08-02 21:00, 1.12,10.7
2010-08-02 22:00, 1.30,8.0
2010-08-02 23:00, 1.42,10.7
2010-08-03 00:00, 1.36,8.0
2010-08-03 01:00, 1.12,8.0
2010-08-03 02:00, 0.99,8.0
2010-08-03 03:00, 0.89,8.0
2010-08-03 04:00, 0.92,8.0
2010-08-03 05:00, 0.88,6.4
2010-08-03 06:00, 0.90,6.4
2010-08-03 07:00, 0.96,8.0
2010-08-03 08:00, 0.91,8.0
2010-08-03 09:00, 0.99,8.0
2010-08-03 10:00, 1.02,6.4
2010-08-03 11:00, 1.21,8.0
2010-08-03 12:00, 1.14,10.7
2010-08-03 13:00, 1.12,8.0
2010-08-03 14:00, 1.00,8.0
2010-08-03 15:00, 1.09,8.0
2010-08-03 16:00, 1.11,8.0
2010-08-03 17:00, 1.09,8.0
2010-08-03 18:00, 1.18,8.0
2010-08-03 19:00,,
2010-08-03 20:00, 1.01,8.0
2010-08-03 21:00, 1.09,10.7
2010-08-03 22:00, 1.09,8.0
2010-08-03 23:00, 0.78,3.2
2010-08-04 00:00, 1.24,8.0
2010-08-04 01:00, 1.55,10.7
2010-08-04 02:00, 1.35,8.0
2010-08-04 03:00, 1.38,8.0
2010-08-04 04:00, 1.35,8.0
2010-08-04 05:00, 1.36,8.0
2010-08-04 06:00, 1.24,8.0
2010-08-04 07:00, 1.22,8.0
2010-08-04 08:00, 1.10,10.7
2010-08-04 09:00, 1.18,8.0
2010-08-04 10:00, 1.12,5.3
2010-08-04 11:00, 1.20,8.0
2010-08-04 12:00, 1.30,4.6
2010-08-04 13:00, 1.03,4.6
2010-08-04 14:00, 1.45,4.0
2010-08-04 15:00, 1.23,5.3
2010-08-04 16:00, 1.47,6.4
2010-08-04 17:00, 1.45,4.6
2010-08-04 18:00, 1.53,4.6
2010-08-04 19:00, 1.51,5.3
2010-08-04 20:00, 1.49,6.4
2010-08-04 21:00, 1.33,5.3
2010-08-04 22:00, 1.47,5.3
2010-08-04 23:00, 1.43,6.4
2010-08-05 00:00, 1.43,4.6
2010-08-05 01:00, 1.28,8.0
2010-08-05 02:00, 1.34,6.4
2010-08-05 03:00, 1.26,6.4
2010-08-05 04:00, 1.28,5.3
2010-08-05 05:00, 1.37,5.3
2010-08-05 06:00, 1.22,6.4
2010-08-05 07:00, 1.15,5.3
2010-08-05 08:00, 1.09,6.4
2010-08-05 09:00, 1.24,4.6
2010-08-05 10:00, 1.07,4.6
2010-08-05 11:00, 1.31,5.3
2010-08-05 12:00, 1.06,6.4
2010-08-05 13:00, 0.95,5.3
2010-08-05 14:00, 0.70,4.6
2010-08-05 15:00, 0.97,10.7
2010-08-05 16:00, 1.03,5.3
2010-08-05 17:00, 1.08,5.3
2010-08-05 18:00, 1.02,5.3
2010-08-05 19:00, 0.84,6.4
2010-08-05 20:00, 0.82,5.3
2010-08-05 21:00, 0.99,5.3
2010-08-05 22:00, 0.92,5.3
2010-08-05 23:00, 0.96,5.3
2010-08-06 00:00, 1.10,5.3
2010-08-06 01:00, 1.14,4.0
2010-08-06 02:00, 1.28,5.3
2010-08-06 03:00, 1.41,5.3
2010-08-06 04:00, 1.72,5.3
2010-08-06 05:00, 1.85,5.3
2010-08-06 06:00, 2.10,5.3
2010-08-06 07:00, 2.27,8.0
2010-08-06 08:00, 2.42,6.4
2010-08-06 09:00, 2.05,8.0
2010-08-06 10:00, 2.11,6.4
2010-08-06 11:00, 2.04,6.4
2010-08-06 12:00, 2.27,8.0
2010-08-06 13:00, 2.18,8.0
2010-08-06 14:00, 2.02,10.7
2010-08-06 15:00, 2.31,8.0
2010-08-06 16:00, 2.26,8.0
2010-08-06 17:00, 2.27,10.7
2010-08-06 18:00,,
2010-08-06 19:00, 2.72,8.0
2010-08-06 20:00, 2.64,8.0
2010-08-06 21:00, 2.21,8.0
2010-08-06 22:00, 2.19,8.0
2010-08-06 23:00, 1.89,8.0
2010-08-07 00:00, 2.03,8.0
2010-08-07 01:00, 1.80,8.0
2010-08-07 02:00, 1.60,8.0
2010-08-07 03:00, 1.63,8.0
2010-08-07 04:00, 1.69,8.0
2010-08-07 05:00, 1.89,10.7
2010-08-07 06:00, 2.09,10.7
2010-08-07 07:00, 1.81,10.7
2010-08-07 08:00, 2.40,10.7
2010-08-07 09:00, 1.76,10.7
2010-08-07 10:00, 1.60,8.0
2010-08-07 11:00, 1.82,8.0
2010-08-07 12:00, 1.61,8.0
2010-08-07 13:00, 1.82,8.0
2010-08-07 15:00,,
2010-08-07 16:00, 1.33,8.0
2010-08-07 17:00, 1.60,8.0
2010-08-07 18:00, 1.59,8.0
2010-08-07 19:00, 1.56,8.0
2010-08-07 20:00, 1.54,8.0
2010-08-07 21:00, 1.29,8.0
2010-08-07 22:00, 1.38,8.0
2010-08-07 23:00, 1.19,8.0
2010-08-08 00:00, 1.17,8.0
2010-08-08 01:00, 1.17,8.0
2010-08-08 02:00, 1.03,8.0
2010-08-08 03:00, 1.12,8.0
2010-08-08 04:00, 0.53,4.6
2010-08-08 05:00, 0.51,4.6
2010-08-08 06:00, 1.12,8.0
2010-08-08 07:00, 1.13,10.7
2010-08-08 08:00, 1.18,8.0
2010-08-08 09:00,,
2010-08-08 10:00, 1.18,8.0
2010-08-08 11:00, 1.13,10.7
2010-08-08 12:00, 1.08,10.7
2010-08-08 13:00, 1.24,10.7
2010-08-08 14:00, 1.33,10.7
2010-08-08 15:00,,
2010-08-08 16:00, 1.15,10.7
2010-08-08 17:00, 1.23,10.7
2010-08-08 18:00, 1.27,10.7
2010-08-08 19:00, 1.29,10.7
2010-08-08 20:00, 1.53,10.7
2010-08-08 21:00, 1.40,10.7
2010-08-08 22:00, 1.29,10.7
2010-08-08 23:00, 1.02,10.7
2010-08-09 00:00, 1.07,10.7
2010-08-09 01:00, 0.98,10.7
2010-08-09 02:00, 0.97,10.7
2010-08-09 03:00, 1.00,10.7
2010-08-09 04:00, 1.04,10.7
2010-08-09 05:00, 1.17,10.7
2010-08-09 06:00, 1.24,10.7
2010-08-09 07:00, 1.25,10.7
2010-08-09 08:00, 1.11,8.0
2010-08-09 09:00, 1.38,10.7
2010-08-09 10:00, 1.48,8.0
2010-08-09 11:00, 1.23,8.0
2010-08-09 12:00, 1.00,10.7
2010-08-09 13:00, 0.94,10.7
2010-08-09 14:00, 1.20,8.0
2010-08-09 15:00, 1.22,8.0
2010-08-09 16:00, 1.30,10.7
2010-08-09 17:00, 1.30,10.7
2010-08-09 18:00, 1.40,10.7
2010-08-09 19:00, 1.42,8.0
2010-08-09 20:00, 1.50,10.7
2010-08-09 21:00, 1.68,8.0
2010-08-09 22:00, 1.64,8.0
2010-08-09 23:00, 1.54,8.0
2010-08-10 00:00, 1.46,6.4
2010-08-10 01:00, 1.10,8.0
2010-08-10 02:00, 1.16,8.0
2010-08-10 03:00, 1.18,8.0
2010-08-10 04:00, 1.29,10.7
2010-08-10 05:00, 1.04,6.4
2010-08-10 06:00, 1.33,10.7
2010-08-10 07:00, 1.17,10.7
2010-08-10 08:00, 1.32,10.7
2010-08-10 09:00, 1.49,8.0
2010-08-10 10:00, 1.42,8.0
2010-08-10 11:00, 1.57,8.0
2010-08-10 12:00, 1.56,8.0
2010-08-10 13:00, 1.36,8.0
2010-08-10 14:00, 1.15,8.0
2010-08-10 15:00, 1.15,8.0
2010-08-10 16:00, 1.08,6.4
2010-08-10 17:00, 1.28,8.0
2010-08-10 18:00, 1.07,8.0
2010-08-10 19:00, 1.09,8.0
2010-08-10 20:00, 1.06,8.0
2010-08-10 21:00, 1.11,8.0
2010-08-10 22:00, 1.39,8.0
2010-08-10 23:00, 1.15,8.0
2010-08-11 00:00, 1.11,8.0
2010-08-11 01:00, 1.08,8.0
2010-08-11 02:00, 0.78,8.0
2010-08-11 03:00, 0.75,8.0
2010-08-11 04:00, 0.89,10.7
2010-08-11 05:00, 0.81,8.0
2010-08-11 06:00, 0.71,8.0
2010-08-11 07:00, 0.82,8.0
2010-08-11 08:00, 0.91,10.7
2010-08-11 09:00, 1.03,8.0
2010-08-11 10:00, 1.01,8.0
2010-08-11 11:00, 1.04,8.0
2010-08-11 12:00, 0.99,6.4
2010-08-11 13:00, 0.90,8.0
2010-08-11 14:00, 0.87,6.4
2010-08-11 15:00, 0.73,8.0
2010-08-11 16:00, 0.72,6.4
2010-08-11 17:00, 0.71,8.0
2010-08-11 18:00, 0.68,6.4
2010-08-11 19:00, 0.69,8.0
2010-08-11 20:00, 0.63,6.4
2010-08-11 21:00, 0.44,2.5
2010-08-11 22:00, 0.86,8.0
2010-08-11 23:00, 0.89,8.0
2010-08-12 00:00, 0.74,6.4
2010-08-12 01:00, 0.70,6.4
2010-08-12 02:00, 0.64,6.4
2010-08-12 03:00, 0.80,4.6
2010-08-12 04:00, 0.75,4.0
2010-08-12 05:00, 0.86,4.0
2010-08-12 06:00, 0.73,4.0
2010-08-12 07:00,,
2010-08-12 08:00, 0.60,4.0
2010-08-12 09:00, 0.77,4.6
2010-08-12 10:00, 1.03,4.6
2010-08-12 11:00, 1.07,4.6
2010-08-12 12:00, 1.11,4.0
2010-08-12 13:00, 1.01,4.6
2010-08-12 14:00, 0.65,4.6
2010-08-12 15:00, 0.59,4.6
2010-08-12 16:00, 0.88,10.7
2010-08-12 17:00, 0.81,5.3
2010-08-12 18:00, 0.79,5.3
2010-08-12 19:00, 0.84,5.3
2010-08-12 20:00, 1.02,5.3
2010-08-12 21:00, 0.97,5.3
2010-08-12 22:00, 1.12,5.3
2010-08-12 23:00, 1.05,5.3
2010-08-13 00:00, 1.19,4.6
2010-08-13 01:00, 1.01,4.6
2010-08-13 02:00, 0.68,5.3
2010-08-13 03:00, 0.61,10.7
2010-08-13 04:00, 0.63,10.7
2010-08-13 05:00, 0.76,10.7
2010-08-13 06:00, 0.59,5.3
2010-08-13 07:00, 0.68,6.4
2010-08-13 08:00, 0.69,5.3
2010-08-13 09:00, 0.87,5.3
2010-08-13 10:00, 1.08,5.3
2010-08-13 11:00, 1.05,5.3
2010-08-13 12:00, 0.90,4.6
2010-08-13 13:00, 0.99,8.0
2010-08-13 14:00, 0.69,2.9
2010-08-13 15:00, 0.77,8.0
2010-08-13 16:00, 0.78,5.3
2010-08-13 17:00, 0.88,10.7
2010-08-13 18:00, 0.81,6.4
2010-08-13 19:00, 0.84,5.3
2010-08-13 20:00, 0.90,6.4
2010-08-13 21:00, 0.92,6.4
2010-08-13 22:00, 1.02,5.3
2010-08-13 23:00, 0.92,5.3
2010-08-14 00:00, 1.16,5.3
2010-08-14 01:00, 0.98,4.6
2010-08-14 02:00, 0.82,5.3
2010-08-14 03:00, 0.78,10.7
2010-08-14 04:00, 0.73,6.4
2010-08-14 05:00, 0.79,6.4
2010-08-14 06:00, 0.97,8.0
2010-08-14 07:00, 0.81,8.0
2010-08-14 08:00, 0.97,8.0
2010-08-14 09:00, 1.01,8.0
2010-08-14 10:00, 0.91,8.0
2010-08-14 11:00, 1.11,6.4
2010-08-14 12:00, 1.17,6.4
2010-08-14 13:00, 1.15,5.3
2010-08-14 14:00, 1.05,6.4
2010-08-14 15:00, 0.95,10.7
2010-08-14 16:00, 0.76,8.0
2010-08-14 17:00, 0.81,8.0
2010-08-14 18:00, 0.95,8.0
2010-08-14 19:00, 0.93,8.0
2010-08-14 20:00, 0.91,6.4
2010-08-14 21:00, 1.31,8.0
2010-08-14 22:00, 1.11,8.0
2010-08-14 23:00, 1.13,8.0
2010-08-15 00:00, 1.31,6.4
2010-08-15 01:00, 1.63,6.4
2010-08-15 02:00, 1.40,6.4
2010-08-15 03:00, 1.14,6.4
2010-08-15 04:00, 0.96,8.0
2010-08-15 05:00, 1.18,8.0
2010-08-15 06:00, 1.43,8.0
2010-08-15 07:00, 1.41,10.7
2010-08-15 08:00, 1.83,10.7
2010-08-15 09:00, 2.29,10.7
2010-08-15 10:00, 2.23,10.7
2010-08-15 11:00, 1.66,8.0
2010-08-15 12:00, 1.60,10.7
2010-08-15 13:00, 1.83,8.0
2010-08-15 14:00, 1.77,8.0
2010-08-15 15:00, 1.32,8.0
2010-08-15 16:00, 1.18,8.0
2010-08-15 18:00, 1.18,10.7
2010-08-15 19:00, 1.67,10.7
2010-08-15 20:00, 1.48,10.7
2010-08-15 21:00, 1.56,10.7
2010-08-15 22:00, 1.73,10.7
2010-08-15 23:00, 1.93,10.7
2010-08-16 00:00, 2.39,10.7
2010-08-16 01:00, 1.91,10.7
2010-08-16 02:00, 2.42,10.7
2010-08-16 03:00, 1.90,10.7
2010-08-16 04:00, 1.65,10.7
2010-08-16 05:00, 1.02,10.7
2010-08-16 06:00, 1.47,10.7
2010-08-16 07:00, 1.97,10.7
2010-08-16 08:00, 1.48,10.7
2010-08-16 09:00, 1.48,10.7
2010-08-16 10:00, 1.78,10.7
2010-08-16 11:00, 1.64,10.7
2010-08-16 12:00, 1.75,10.7
2010-08-16 13:00, 1.82,10.7
2010-08-16 14:00, 1.68,10.7
2010-08-16 15:00, 1.56,10.7
2010-08-16 16:00, 1.71,10.7
2010-08-16 17:00, 1.48,10.7
2010-08-16 18:00, 1.22,10.7
2010-08-16 19:00, 1.67,10.7
2010-08-16 20:00, 1.95,10.7
2010-08-16 21:00, 1.99,10.7
2010-08-16 22:00,,
2010-08-16 23:00, 1.65,10.7
2010-08-17 00:00, 1.51,10.7
2010-08-17 01:00, 1.52,10.7
2010-08-17 02:00, 1.82,10.7
2010-08-17 03:00, 1.56,10.7
2010-08-17 04:00, 1.62,10.7
2010-08-17 05:00, 1.63,10.7
2010-08-17 06:00, 1.46,10.7
2010-08-17 07:00, 1.25,10.7
2010-08-17 08:00, 1.54,10.7
2010-08-17 09:00, 1.47,10.7
2010-08-17 10:00, 1.53,10.7
2010-08-17 11:00, 1.78,10.7
2010-08-17 12:00, 1.77,10.7
2010-08-17 13:00, 1.65,10.7
2010-08-17 14:00, 1.87,10.7
2010-08-17 15:00, 1.62,10.7
2010-08-17 16:00, 1.66,8.0
2010-08-17 17:00, 1.56,5.3
2010-08-17 18:00, 1.29,10.7
2010-08-17 19:00, 1.17,10.7
2010-08-17 20:00, 1.40,10.7
2010-08-17 21:00, 1.27,5.3
2010-08-17 22:00, 1.96,10.7
2010-08-17 23:00, 1.45,10.7
2010-08-18 00:00, 1.68,10.7
2010-08-18 01:00, 1.44,10.7
2010-08-18 02:00, 1.71,10.7
2010-08-18 03:00, 1.76,10.7
2010-08-18 04:00, 1.62,8.0
2010-08-18 05:00, 1.43,4.6
2010-08-18 06:00, 1.55,4.6
2010-08-18 07:00, 1.22,5.3
2010-08-18 08:00, 1.16,4.6
2010-08-18 09:00, 1.27,10.7
2010-08-18 10:00, 1.33,5.3
2010-08-18 11:00, 1.31,10.7
2010-08-18 12:00, 1.25,6.4
2010-08-18 13:00, 1.27,8.0
2010-08-18 14:00, 1.23,8.0
2010-08-18 15:00, 0.98,5.3
2010-08-18 16:00, 1.08,8.0
2010-08-18 17:00, 0.98,8.0
2010-08-18 18:00, 0.93,8.0
2010-08-18 19:00, 0.88,5.3
2010-08-18 20:00, 0.81,6.4
2010-08-18 21:00, 0.83,5.3
2010-08-18 22:00, 1.01,8.0
2010-08-18 23:00, 0.92,8.0
2010-08-19 00:00, 0.89,8.0
2010-08-19 01:00, 0.68,8.0
2010-08-19 02:00, 0.93,8.0
2010-08-19 03:00, 0.83,6.4
2010-08-19 04:00, 0.78,8.0
2010-08-19 05:00, 0.74,8.0
2010-08-19 06:00, 0.80,8.0
2010-08-19 07:00, 0.74,5.3
2010-08-19 08:00, 0.75,6.4
2010-08-19 09:00, 0.64,6.4
2010-08-19 10:00, 0.63,5.3
2010-08-19 11:00, 0.63,6.4
2010-08-19 12:00, 0.46,5.3
2010-08-19 13:00, 0.62,5.3
2010-08-19 14:00, 0.65,8.0
2010-08-19 15:00, 0.64,8.0
2010-08-19 16:00, 0.63,10.7
2010-08-19 17:00, 0.65,5.3
2010-08-19 18:00, 0.76,8.0
2010-08-19 19:00, 0.64,5.3
2010-08-19 20:00, 0.58,6.4
2010-08-19 21:00, 0.64,8.0
2010-08-19 22:00, 0.65,10.7
2010-08-19 23:00, 0.60,6.4
2010-08-20 00:00, 0.64,6.4
2010-08-20 01:00, 0.60,8.0
2010-08-20 02:00, 0.68,10.7
2010-08-20 03:00, 0.61,8.0
2010-08-20 04:00, 0.61,8.0
2010-08-20 05:00, 0.71,6.4
2010-08-20 06:00, 0.59,4.6
2010-08-20 07:00, 0.69,4.6
2010-08-20 08:00, 0.65,5.3
2010-08-20 09:00, 0.58,6.4
2010-08-20 10:00, 0.60,10.7
2010-08-20 11:00, 0.64,8.0
2010-08-20 12:00, 0.72,8.0
2010-08-20 13:00, 0.68,8.0
2010-08-20 14:00, 0.84,6.4
2010-08-20 15:00, 0.82,8.0
2010-08-20 16:00, 0.80,6.4
2010-08-20 17:00, 0.96,8.0
2010-08-20 18:00, 0.90,6.4
2010-08-20 19:00, 1.07,8.0
2010-08-20 20:00, 0.90,6.4
2010-08-20 21:00, 0.83,8.0
2010-08-20 22:00, 0.78,8.0
2010-08-20 23:00, 0.79,6.4
2010-08-21 00:00, 0.64,8.0
2010-08-21 01:00, 0.64,8.0
2010-08-21 02:00, 0.58,6.4
2010-08-21 03:00, 0.69,6.4
2010-08-21 04:00, 0.70,10.7
2010-08-21 05:00, 0.76,8.0
2010-08-21 06:00, 0.83,10.7
2010-08-21 07:00, 0.85,6.4
2010-08-21 08:00, 0.81,6.4
2010-08-21 09:00, 0.76,6.4
2010-08-21 10:00, 0.72,6.4
2010-08-21 11:00, 0.70,8.0
2010-08-21 12:00, 0.80,8.0
2010-08-21 13:00, 0.78,8.0
2010-08-21 14:00, 0.80,8.0
2010-08-21 15:00,,
2010-08-21 16:00, 0.52,4.0
2010-08-21 17:00, 0.44,4.0
2010-08-21 18:00, 0.69,6.4
2010-08-21 19:00, 0.78,6.4
2010-08-21 20:00, 0.92,8.0
2010-08-21 21:00, 0.82,8.0
2010-08-21 22:00, 0.69,8.0
2010-08-21 23:00, 0.76,8.0
2010-08-22 00:00, 0.75,8.0
2010-08-22 01:00, 0.76,8.0
2010-08-22 02:00, 1.01,10.7
2010-08-22 03:00, 0.82,8.0
2010-08-22 04:00, 0.87,8.0
2010-08-22 05:00, 0.78,8.0
2010-08-22 06:00, 0.96,8.0
2010-08-22 07:00, 0.84,8.0
2010-08-22 08:00, 0.86,8.0
2010-08-22 09:00, 0.75,8.0
2010-08-22 10:00, 0.63,8.0
2010-08-22 11:00, 0.61,8.0
2010-08-22 12:00, 0.50,8.0
2010-08-22 13:00, 0.55,8.0
2010-08-22 14:00, 0.66,8.0
2010-08-22 15:00, 0.72,8.0
2010-08-22 16:00, 0.73,8.0
2010-08-22 17:00, 0.86,8.0
2010-08-22 18:00, 0.87,8.0
2010-08-22 19:00, 1.03,8.0
2010-08-22 20:00, 0.97,8.0
2010-08-22 21:00, 1.00,8.0
2010-08-22 22:00, 0.95,6.4
2010-08-22 23:00, 0.58,8.0
2010-08-23 00:00, 0.82,8.0
2010-08-23 01:00, 0.69,8.0
2010-08-23 02:00, 0.66,8.0
2010-08-23 03:00, 0.87,8.0
2010-08-23 04:00, 0.71,8.0
2010-08-23 05:00, 0.73,8.0
2010-08-23 06:00, 0.95,8.0
2010-08-23 07:00, 0.86,8.0
2010-08-23 08:00, 1.16,8.0
2010-08-23 09:00, 1.09,8.0
2010-08-23 10:00, 1.15,8.0
2010-08-23 11:00, 1.12,3.6
2010-08-23 12:00, 1.43,4.6
2010-08-23 13:00, 1.42,5.3
2010-08-23 14:00, 1.69,5.3
2010-08-23 15:00, 2.33,6.4
2010-08-23 16:00, 2.22,8.0
2010-08-23 17:00, 2.18,6.4
2010-08-23 18:00, 2.48,8.0
2010-08-23 19:00, 2.33,8.0
2010-08-23 20:00, 2.66,6.4
2010-08-23 21:00, 2.67,8.0
2010-08-23 22:00, 3.21,6.4
2010-08-23 23:00, 3.28,8.0
2010-08-24 00:00, 3.22,8.0
2010-08-24 01:00, 3.47,8.0
2010-08-24 02:00, 3.40,8.0
2010-08-24 03:00, 3.96,8.0
2010-08-24 04:00, 4.38,8.0
2010-08-24 05:00, 4.33,10.7
2010-08-24 06:00, 4.69,10.7
2010-08-24 07:00, 4.12,8.0
2010-08-24 08:00, 3.61,8.0
2010-08-24 09:00, 3.77,8.0
2010-08-24 10:00, 2.67,8.0
2010-08-24 11:00, 3.09,8.0
2010-08-24 12:00, 2.97,10.7
2010-08-24 13:00, 3.42,10.7
2010-08-24 14:00, 4.00,10.7
2010-08-24 15:00, 3.37,10.7
2010-08-24 16:00, 4.12,8.0
2010-08-24 17:00, 4.01,10.7
2010-08-24 18:00, 4.13,8.0
2010-08-24 19:00, 3.80,10.7
2010-08-24 20:00, 3.87,8.0
2010-08-24 21:00, 3.68,8.0
2010-08-24 22:00, 3.39,8.0
2010-08-24 23:00, 2.99,8.0
2010-08-25 00:00, 2.94,10.7
2010-08-25 01:00, 2.63,10.7
2010-08-25 02:00, 2.70,8.0
2010-08-25 03:00, 2.92,8.0
2010-08-25 04:00, 3.16,10.7
2010-08-25 05:00, 3.49,10.7
2010-08-25 06:00, 3.26,10.7
2010-08-25 07:00, 3.03,10.7
2010-08-25 08:00, 2.98,10.7
2010-08-25 09:00, 3.29,10.7
2010-08-25 10:00, 2.60,10.7
2010-08-25 11:00, 2.48,8.0
2010-08-25 12:00, 2.58,10.7
2010-08-25 13:00, 2.26,10.7
2010-08-25 14:00, 2.41,10.7
2010-08-25 15:00, 2.67,8.0
2010-08-25 16:00, 3.02,10.7
2010-08-25 17:00, 2.64,10.7
2010-08-25 18:00, 2.75,10.7
2010-08-25 19:00, 2.70,8.0
2010-08-25 20:00, 2.64,10.7
2010-08-25 21:00,,
2010-08-25 22:00, 2.29,6.4
2010-08-25 23:00, 2.34,8.0
2010-08-26 00:00, 2.49,6.4
2010-08-26 01:00, 2.20,8.0
2010-08-26 02:00, 2.22,8.0
2010-08-26 03:00, 2.27,8.0
2010-08-26 04:00, 2.12,8.0
2010-08-26 05:00, 2.46,8.0
2010-08-26 06:00, 2.76,10.7
2010-08-26 07:00, 2.55,8.0
2010-08-26 08:00, 2.55,8.0
2010-08-26 09:00, 2.32,8.0
2010-08-26 10:00, 2.31,8.0
2010-08-26 11:00, 2.45,8.0
2010-08-26 12:00, 2.01,8.0
2010-08-26 13:00, 2.08,8.0
2010-08-26 14:00, 2.03,8.0
2010-08-26 15:00, 2.21,8.0
2010-08-26 16:00, 2.28,8.0
2010-08-26 17:00, 2.17,5.3
2010-08-26 18:00, 2.47,5.3
2010-08-26 19:00, 2.21,8.0
2010-08-26 20:00, 2.26,10.7
2010-08-26 21:00, 2.00,6.4
2010-08-26 22:00, 1.98,6.4
2010-08-26 23:00, 1.91,8.0
2010-08-27 00:00, 2.01,6.4
2010-08-27 01:00, 1.96,6.4
2010-08-27 02:00, 1.74,8.0
2010-08-27 03:00, 1.58,8.0
2010-08-27 04:00, 1.58,8.0
2010-08-27 05:00, 1.61,10.7
2010-08-27 06:00, 1.68,8.0
2010-08-27 07:00, 1.61,8.0
2010-08-27 08:00, 1.44,10.7
2010-08-27 09:00, 1.52,10.7
2010-08-27 10:00, 1.41,8.0
2010-08-27 11:00, 1.38,8.0
2010-08-27 12:00, 1.48,8.0
2010-08-27 13:00, 1.54,8.0
2010-08-27 14:00, 1.37,8.0
2010-08-27 15:00, 1.24,8.0
2010-08-27 16:00, 1.25,8.0
2010-08-27 17:00, 1.23,8.0
2010-08-27 18:00, 1.17,6.4
2010-08-27 19:00, 1.25,8.0
2010-08-27 20:00, 1.40,8.0
2010-08-27 21:00, 1.18,8.0
2010-08-27 22:00, 1.01,8.0
2010-08-27 23:00, 1.14,8.0
2010-08-28 00:00, 1.12,6.4
2010-08-28 01:00, 1.07,8.0
2010-08-28 02:00, 1.15,8.0
2010-08-28 03:00, 0.99,8.0
2010-08-28 04:00, 1.03,8.0
2010-08-28 05:00, 1.07,8.0
2010-08-28 06:00, 0.98,8.0
2010-08-28 07:00, 0.99,8.0
2010-08-28 08:00, 0.95,8.0
2010-08-28 09:00, 0.78,5.3
2010-08-28 10:00, 0.37,2.5
2010-08-28 11:00, 1.16,10.7
2010-08-28 12:00, 0.70,4.6
2010-08-28 13:00,,
2010-08-28 14:00, 0.88,8.0
2010-08-28 15:00, 0.38,4.0
2010-08-28 16:00, 0.46,5.3
2010-08-28 17:00, 0.33,2.9
2010-08-28 18:00, 0.50,4.6
2010-08-28 19:00, 0.52,4.6
2010-08-28 20:00, 0.49,4.6
2010-08-28 21:00, 0.40,2.5
2010-08-28 22:00, 2.46,16.0
2010-08-28 23:00,,
2010-08-29 00:00,,
2010-08-29 01:00,,
2010-08-29 02:00,,
2010-08-29 03:00, 1.02,10.7
2010-08-29 04:00, 0.98,10.7
2010-08-29 05:00,,
2010-08-29 06:00,,
2010-08-29 07:00, 0.32,3.2
2010-08-29 08:00, 1.48,16.0
2010-08-29 09:00, 1.42,16.0
2010-08-29 10:00, 1.32,10.7
2010-08-29 11:00, 1.35,10.7
2010-08-29 12:00, 1.06,10.7
2010-08-29 13:00, 1.16,10.7
2010-08-29 14:00, 1.26,10.7
2010-08-29 15:00, 1.16,10.7
2010-08-29 16:00, 1.08,10.7
2010-08-29 17:00, 1.34,10.7
2010-08-29 18:00, 1.43,16.0
2010-08-29 19:00, 1.24,10.7
2010-08-29 20:00, 1.30,16.0
2010-08-29 21:00, 1.82,16.0
2010-08-29 22:00, 2.28,16.0
2010-08-29 23:00, 1.94,16.0
2010-08-30 00:00, 2.93,16.0
2010-08-30 01:00,,
2010-08-30 02:00, 2.48,16.0
2010-08-30 03:00, 2.76,16.0
2010-08-30 04:00, 1.89,16.0
2010-08-30 05:00, 2.35,16.0
2010-08-30 06:00,,
2010-08-30 07:00,,
2010-08-30 08:00,,
2010-08-30 09:00,,
2010-08-30 10:00, 2.94,16.0
2010-08-30 11:00,,
2010-08-30 12:00,,
2010-08-30 13:00,,
2010-08-30 14:00,,
2010-08-30 15:00,,
2010-08-30 16:00,,
2010-08-30 17:00, 1.71,16.0
2010-08-30 18:00, 2.04,16.0
2010-08-30 19:00,,
2010-08-30 20:00,,
2010-08-30 21:00, 1.69,16.0
2010-08-30 22:00,,
2010-08-30 23:00, 1.77,16.0
2010-08-31 00:00, 2.17,16.0
2010-08-31 01:00,,
2010-08-31 02:00, 2.44,16.0
2010-08-31 03:00, 1.62,10.7
2010-08-31 04:00, 1.85,10.7
2010-08-31 05:00, 2.34,16.0
2010-08-31 06:00, 2.47,16.0
2010-08-31 07:00, 2.39,16.0
2010-08-31 08:00, 2.23,16.0
2010-08-31 09:00, 2.55,16.0
2010-08-31 10:00, 2.92,16.0
2010-08-31 11:00, 2.35,16.0
2010-08-31 12:00, 2.71,10.7
2010-08-31 13:00, 2.09,10.7
2010-08-31 14:00, 1.59,10.7
2010-08-31 15:00, 1.59,10.7
2010-08-31 16:00, 1.75,10.7
2010-08-31 17:00, 1.77,10.7
2010-08-31 18:00, 1.67,10.7
2010-08-31 19:00, 1.64,10.7
2010-08-31 20:00, 1.71,10.7
2010-08-31 21:00, 1.91,10.7
2010-08-31 22:00, 1.33,10.7
2010-08-31 23:00, 1.40,10.7
2010-09-01 00:00, 1.57,10.7
2010-09-01 01:00, 1.43,10.7
2010-09-01 02:00, 1.53,10.7
2010-09-01 03:00, 1.46,10.7
2010-09-01 04:00, 1.23,10.7
2010-09-01 05:00, 0.94,10.7
2010-09-01 06:00, 0.97,10.7
2010-09-01 07:00, 1.37,10.7
2010-09-01 08:00, 1.48,10.7
2010-09-01 09:00, 1.32,10.7
2010-09-01 10:00, 1.10,10.7
2010-09-01 11:00, 1.50,10.7
2010-09-01 12:00, 1.29,10.7
2010-09-01 13:00, 1.31,10.7
2010-09-01 14:00, 1.35,10.7
2010-09-01 15:00, 1.59,10.7
2010-09-01 16:00, 1.19,10.7
2010-09-01 17:00, 1.16,10.7
2010-09-01 18:00, 0.78,10.7
2010-09-01 19:00, 0.92,10.7
2010-09-01 20:00, 0.89,10.7
2010-09-01 21:00, 0.91,10.7
2010-09-01 22:00, 0.94,10.7
2010-09-01 23:00,,
2010-09-02 00:00, 1.03,10.7
2010-09-02 01:00,,
2010-09-02 02:00, 1.11,10.7
2010-09-02 03:00,,
2010-09-02 04:00,,
2010-09-02 05:00, 0.38,3.6
2010-09-02 06:00, 1.07,10.7
2010-09-02 07:00,,
2010-09-02 08:00, 0.41,2.9
2010-09-02 09:00, 0.42,2.9
2010-09-02 10:00, 1.25,10.7
2010-09-02 11:00,,
2010-09-02 12:00, 0.57,3.6
2010-09-02 13:00, 0.61,3.6
2010-09-02 14:00, 0.69,3.6
2010-09-02 15:00, 1.99,10.7
2010-09-02 16:00, 1.87,10.7
2010-09-02 17:00,,
2010-09-02 18:00, 1.53,10.7
2010-09-02 19:00, 0.86,4.6
2010-09-02 20:00, 0.95,4.6
2010-09-02 21:00, 1.04,4.6
2010-09-02 22:00, 1.08,4.6
2010-09-02 23:00, 1.11,4.6
2010-09-03 00:00, 1.06,4.6
2010-09-03 01:00, 1.10,5.3
2010-09-03 02:00, 1.13,4.6
2010-09-03 03:00, 1.13,4.6
2010-09-03 04:00, 1.10,4.6
2010-09-03 05:00, 1.15,5.3
2010-09-03 06:00, 1.16,4.6
2010-09-03 07:00, 1.70,10.7
2010-09-03 08:00, 1.17,5.3
2010-09-03 09:00, 1.22,6.4
2010-09-03 10:00, 0.96,5.3
2010-09-03 11:00, 1.15,6.4
2010-09-03 12:00, 1.13,4.6
2010-09-03 13:00, 3.12,16.0
2010-09-03 14:00,,
2010-09-03 15:00, 1.06,5.3
2010-09-03 16:00, 2.70,16.0
2010-09-03 17:00, 3.47,16.0
2010-09-03 18:00, 3.56,16.0
2010-09-03 19:00, 2.32,16.0
2010-09-03 20:00, 2.48,16.0
2010-09-03 21:00, 2.76,16.0
2010-09-03 22:00,,
2010-09-03 23:00, 0.74,5.3
2010-09-04 00:00,,
2010-09-04 01:00, 0.76,3.6
2010-09-04 02:00, 0.79,4.0
2010-09-04 03:00, 1.12,4.6
2010-09-04 04:00, 1.37,4.6
2010-09-04 05:00, 1.95,5.3
2010-09-04 06:00, 3.37,10.7
2010-09-04 07:00, 2.73,6.4
2010-09-04 08:00, 4.28,8.0
2010-09-04 09:00, 5.22,8.0
2010-09-04 10:00, 9.04,10.7
2010-09-04 11:00,,16.0
2010-09-04 13:00,,
2010-09-04 14:00,,
2010-09-04 15:00,,
2010-09-04 16:00, 6.34,10.7
2010-09-04 17:00, 7.33,16.0
2010-09-04 18:00,,
2010-09-04 19:00, 4.81,10.7
2010-09-04 20:00, 4.50,10.7
2010-09-04 21:00, 4.33,10.7
2010-09-04 22:00, 4.34,10.7
2010-09-04 23:00, 3.73,8.0
2010-09-05 00:00, 3.67,10.7
2010-09-05 01:00, 3.82,8.0
2010-09-05 02:00, 3.85,10.7
2010-09-05 03:00,,
2010-09-05 04:00, 3.24,10.7
2010-09-05 05:00, 3.93,10.7
2010-09-05 06:00,,
2010-09-05 07:00, 3.76,10.7
2010-09-05 08:00, 3.26,10.7
2010-09-05 09:00, 2.42,10.7
2010-09-05 10:00, 2.46,8.0
2010-09-05 11:00, 2.62,10.7
2010-09-05 12:00, 2.51,10.7
2010-09-05 13:00, 2.26,8.0
2010-09-05 14:00, 1.89,8.0
2010-09-05 15:00, 1.85,8.0
2010-09-05 16:00, 2.03,8.0
2010-09-05 17:00,,
2010-09-05 18:00, 1.98,10.7
2010-09-05 19:00, 2.05,6.4
2010-09-05 20:00, 2.12,8.0
2010-09-05 21:00, 2.10,8.0
2010-09-05 22:00, 2.08,8.0
2010-09-05 23:00, 2.25,8.0
2010-09-06 00:00, 2.04,8.0
2010-09-06 01:00,,
2010-09-06 02:00, 2.26,8.0
2010-09-06 03:00, 2.17,6.4
2010-09-06 04:00, 2.02,8.0
2010-09-06 05:00, 1.85,6.4
2010-09-06 06:00, 1.96,8.0
2010-09-06 07:00, 1.76,8.0
2010-09-06 08:00, 1.62,10.7
2010-09-06 09:00, 1.38,6.4
2010-09-06 10:00, 1.51,8.0
2010-09-06 11:00, 1.21,6.4
2010-09-06 12:00, 1.15,6.4
2010-09-06 13:00, 1.14,6.4
2010-09-06 14:00, 1.04,5.3